Location: *
(31.2983°S, 151.4094°E)
Time: 08:14:35
(UTC+00:00)

Sakura Rocket - Pass Details

Date: 25 August 2019
Orbit: 476 x 1744 km, 28.7° (Epoch: 15 September)

Event Time Altitude Azimuth Distance (km) Brightness Sun altitude
Exits shadow 18:04:51 58° 336° (NNW) 1,291 4.4 -29.3°
Maximum altitude 18:05:14 59° 349° (N) 1,298 4.4 -29.2°
Drops below altitude 10° 18:13:54 10° 65° (ENE) 3,537 7.7 -27.4°
Sets 18:17:26 0° 68° (ENE) 4,684 8.5 -26.6°
